Regional Weather Roundup
Issued by NWS Cleveland, OH

Home | Current Version | Previous Version | Text Only | Print | Product List | Glossary On
Versions: 1 2 3 4 5 6 7 8 9 10 11 12 13 14 15 16 17 18 19 20 21 22 23 24 25 26 27 28 29 30 31 32 33 34 35 36 37 38 39 40 41 42 43 44 45 46 47 48 49 50
000
ASUS41 KCLE 310712
RWRCLE
OHIO REGIONAL WEATHER ROUNDUP
NATIONAL WEATHER SERVICE WILMINGTON, OH
300 AM EDT SUN JUL 31 2016

NOTE: "FAIR" INDICATES FEW OR NO CLOUDS BELOW 12,000 FEET WITH NO
SIGNIFICANT WEATHER AND/OR OBSTRUCTIONS TO VISIBILITY.

OHZ001>008-015>018-024>027-034-035-043-044-310800-
   NORTHWEST OHIO

CITY           SKY/WX    TMP DP  RH WIND       PRES   REMARKS
DEFIANCE       CLOUDY    70  66  87 CALM      29.97S
FINDLAY        FAIR      69  66  90 NW3       29.95F FOG
TOLEDO EXPRESS CLOUDY    69  69 100 N5        29.96S
TOLEDO EXEC    MOCLDY    71  69  93 CALM      29.96F
LIMA           FAIR      66  66 100 SE5       29.97S
$$

OHZ009>014-019>023-028>033-038-089-310800-
   NORTHEAST OHIO

CITY           SKY/WX    TMP DP  RH WIND       PRES   REMARKS
CLE-HOPKINS    FAIR      69  65  86 S7        29.97F
CLE-LAKEFRONT  FAIR      71  67  87 S5        29.93F
CUY CO. ARPT   NOT AVBL
LORAIN-ELYRIA  FOG       66  65  96 CALM      29.96F VSB 1/4
ASHTABULA      CLOUDY    69  69 100 SE6       29.97R
AKRON-CANTON   CLOUDY    69  67  93 S5        29.97F FOG
WOOSTER        FOG       68  68 100 S3        29.98S VSB 1/4
MANSFIELD      FAIR      68  66  93 SW7       29.97F
YOUNGSTOWN     FAIR      67  66  97 SE5       29.97S FOG
$$

OHZ042-051>053-060>062-070>072-077>081-310800-
  SOUTHWEST OHIO

CITY           SKY/WX    TMP DP  RH WIND       PRES   REMARKS
CINC-COVINGTON FAIR      72  72 100 SW3       29.99S
CINC-LUNKEN    FAIR      72  72 100 SW5       29.97F
HAMILTON       FAIR      68  65  90 CALM      29.98F
DAYTON         FAIR      70  66  87 SW3       29.98F
WRIGHT-PAT AFB FAIR      70  69  98 SW2       29.96F
DAYTON GENERAL FAIR      71  65  81 CALM      29.97F
WILMINGTON     FOG       68  68 100 SW3       29.98F VSB 3/4
$$

OHZ036-037-039>041-045>050-054>059-063>069-073>076-082>088-310800-
  CENTRAL AND SOUTHEAST OHIO

CITY           SKY/WX    TMP DP  RH WIND       PRES   REMARKS
COLUMBUS       FAIR      71  69  93 S5        29.96S
OSU AIRPORT    FAIR      69  68  96 SW5       29.96F FOG
BOLTON FIELD     N/A     68  68 100 CALM      29.97F FOG
RICKENBACK AFB FAIR      68  67  96 S3        29.96S
NEWARK         FAIR      69  68  96 CALM      29.96S
MARION         FAIR      68  66  93 S5        29.97F
LANCASTER      FAIR      67  66  97 CALM      29.97F
ZANESVILLE     FAIR      70  67  90 CALM      29.97S
NEW PHILLY     MOCLDY    72  69  90 CALM      29.97S FOG
$$



USA.gov is the U.S. government's official web portal to all federal, state and local government web resources and services.